This demonstration page uses our WeatherBlox Daily Observations layout. Learn more.

Left ArrowRight Arrow

34.74481, -87.66753

Hourly Observations for July 6, 2020

Temp ( °F °C ) Dew Point ( °F °C ) Humidity (%) Winds ( mph kmh ) Pressure ( in mb ) Visibility ( mi km ) Precip ( " mm )
12:53 am 00:53 Clear 73 22.8 71 21.7 94 94 Calm 29.91 1013 9 14 0.00 0.00
1:53 am 01:53 Clear 73 22.8 70 21.1 90 90 Calm 29.90 1013 10 16 0.00 0.00
2:53 am 02:53 Clear 73 22.8 71 21.7 94 94 Calm 29.90 1013 10 16 0.00 0.00
3:53 am 03:53 Clear 73 22.8 71 21.7 94 94 Calm 29.91 1013 10 16 0.00 0.00
4:53 am 04:53 Clear 73 22.8 70 21.1 90 90 NE 3 6 29.92 1013 10 16 0.00 0.00
5:53 am 05:53 Sunny 73 22.8 70 21.1 90 90 Calm 29.94 1014 10 16 0.00 0.00
6:53 am 06:53 Sunny 75 23.9 71 21.7 88 88 ENE 5 7 29.96 1015 10 16 0.00 0.00
7:53 am 07:53 Mostly Sunny 76 24.4 72 22.2 88 88 ENE 3 6 29.98 1015 10 16 0.00 0.00
8:53 am 08:53 Sunny 80 26.7 73 22.8 79 79 ESE 3 6 29.98 1015 10 16 0.00 0.00
9:53 am 09:53 Sunny 81 27.2 73 22.8 77 77 SE 7 11 29.98 1015 10 16 0.00 0.00
10:53 am 10:53 Partly Cloudy 83 28.3 74 23.3 74 74 SE 5 7 29.99 1016 10 16 0.00 0.00
11:53 am 11:53 Sunny 85 29.4 74 23.3 70 70 SE 5 7 29.98 1015 10 16 0.00 0.00
12:53 pm 12:53 Mostly Sunny 86 30 72 22.2 63 63 ESE 6 9 29.97 1015 10 16 0.00 0.00
1:53 pm 13:53 Sunny 85 29.4 73 22.8 68 68 E 6 9 29.96 1015 10 16 0.00 0.00
2:53 pm 14:53 Sunny 86 30 73 22.8 65 65 ENE 6 9 29.94 1014 10 16 0.00 0.00
3:53 pm 15:53 Sunny 88 31.1 71 21.7 57 57 VRB 5 7 29.93 1014 10 16 0.00 0.00
4:53 pm 16:53 Mostly Sunny 89 31.7 71 21.7 55 55 E 7 11 29.93 1014 10 16 0.00 0.00
5:53 pm 17:53 Sunny 88 31.1 69 20.6 54 54 E 8 13 29.92 1013 10 16 0.00 0.00
6:53 pm 18:53 Sunny 87 30.6 71 21.7 59 59 E 3 6 29.92 1013 10 16 0.00 0.00
7:53 pm 19:53 Sunny 83 28.3 72 22.2 70 70 Calm 29.93 1014 10 16 0.00 0.00
8:53 pm 20:53 Clear 79 26.1 73 22.8 82 82 E 3 6 29.93 1014 10 16 0.00 0.00
9:53 pm 21:53 Clear 79 26.1 71 21.7 77 77 Calm 29.94 1014 10 16 0.00 0.00
10:53 pm 22:53 Partly Cloudy 77 25 73 22.8 88 88 Calm 29.95 1014 10 16 0.00 0.00
11:53 pm 23:53 Clear 76 24.4 72 22.2 88 88 NNE 5 7 29.96 1015 10 16 0.00 0.00

Powered by AerisWeather